Location: Le Hiès Ruisseau
(43.3000°N, 0.4500°W)
Time: 19:44:12
(UTC+00:00)

Daily predictions for brighter satellites

Satellite Brightness Start Highest point End
(mag) Time Altitude Azimuth Time Altitude Azimuth Time Altitude Azimuth
USA 215 3.7 17:24:54 10° SE 17:31:25 71° SW 17:38:00 10° NW
AQUARIUS 4.2 17:30:53 10° SSE 17:35:22 85° ENE 17:39:52 10° NNW
CZ-4B R/B 4.5 17:32:51 10° E 17:36:15 17° ENE 17:39:41 10° NNE
SJ-11-01 4.3 17:33:06 10° SSE 17:37:47 90° S 17:42:32 10° NNW
Cosmos 1455 Rocket 3.0 17:35:17 10° N 17:39:39 78° E 17:43:59 10° SSE
ATLAS CENTAUR R/B 2.7 17:36:31 10° S 17:40:37 29° ESE 17:44:38 10° NE
Cosmos 614 Rocket 4.1 17:35:32 10° SSW 17:40:46 88° WNW 17:46:00 10° NNE
SMAP 3.5 17:36:38 10° S 17:41:15 69° WSW 17:45:55 10° NNW
Cosmos 1867 3.7 17:37:40 10° NNW 17:43:01 53° NE 17:48:19 10° SE
NOSS 3-4 (A) 3.9 17:38:15 10° NNW 17:45:14 71° NE 17:53:11 10° SE
NOSS 3-4 (C) 3.9 17:38:21 10° NNW 17:45:20 70° NE 17:53:16 10° SE
NOAA 6 4.0 17:45:10 10° SSE 17:50:18 78° ENE 17:55:28 10° N
SKYMED 2 3.9 17:47:17 10° NNE 17:51:30 47° E 17:55:40 10° S
Tiangong -1.2 17:49:45 10° W 17:52:48 44° SSW 17:55:50 10° ESE
SL-4 R/B 1.7 17:51:47 10° WSW 17:55:13 75° NNW 17:58:33 12° NE
Meteor 2-17 Rocket 4.5 17:49:13 10° N 17:55:19 60° E 18:01:22 10° SSE
Cosmos 1340 Rocket 3.5 17:54:14 10° SSE 17:57:35 29° E 18:01:00 10° NNE
Cosmos 1408 3.8 17:55:43 10° SE 17:58:13 19° E 18:00:41 10° NE
USA 290 3.1 17:56:27 10° SSE 17:59:20 31° ESE 18:02:01 11° NE
ADEOS 4.0 17:55:44 10° S 18:00:55 68° WSW 18:06:08 10° NNW
BREEZE-M DEB (TANK) 2.5 17:59:40 10° W 18:02:35 69° N 18:07:22 14° ENE
Cosmos 1238 Rocket 3.8 18:03:33 10° NNW 18:08:09 70° W 18:13:37 10° S
YAOGAN 1 3.3 18:04:49 10° SE 18:08:33 29° ENE 18:12:18 10° N
Cosmos 2322 Rocket 3.7 18:05:36 10° SE 18:08:36 15° E 18:09:28 14° E
Cosmos 1607 3.9 18:03:43 10° SSW 18:09:44 64° ESE 18:15:50 10° NE
Cosmos 1140 Rocket 3.7 18:04:53 10° S 18:09:52 50° ESE 18:14:52 10° NNE
NOSS 2-1 (E) 4.3 18:06:35 10° NNW 18:10:51 43° NE 18:16:48 10° ESE
Cosmos 1703 3.4 18:07:04 10° SSW 18:10:52 74° W 18:14:42 10° N
Cosmos 1655 Rocket 4.0 18:04:52 10° N 18:11:04 58° ENE 18:17:11 10° SSE
Cosmos 2227 Rocket 3.8 18:08:21 10° NW 18:13:35 40° WSW 18:18:48 10° S
Cosmos 1975 Rocket 4.3 18:10:16 10° SSW 18:14:32 44° WNW 18:18:49 10° N
CZ-4 R/B 2.6 18:11:59 10° ESE 18:15:09 22° ENE 18:18:19 10° NNE
Cosmos 1536 Rocket 3.6 18:14:03 10° S 18:18:15 54° E 18:22:28 10° NNE
SL-16 R/B 3.1 18:13:53 10° SSE 18:18:33 27° ESE 18:21:31 18° ENE
Cosmos 1023 Rocket 4.4 18:14:24 10° S 18:19:31 65° ESE 18:24:37 10° NNE
COSMOS 2455 3.0 18:15:11 10° SW 18:21:12 78° WNW 18:27:16 10° NNE
CZ-4 R/B 4.4 18:19:26 10° SSE 18:23:32 89° W 18:27:40 10° NNW
Cosmos 2369 4.0 18:21:37 10° SW 18:27:13 67° WNW 18:32:54 10° NNE
Cosmos 44 3.8 18:23:31 10° SW 18:27:43 51° NW 18:32:00 10° NNE
Cosmos 1892 3.3 18:25:20 10° SSE 18:28:37 31° E 18:29:28 28° ENE
YAOGAN 3 4.5 18:24:38 10° SSE 18:28:58 77° ENE 18:33:20 10° N
Cosmos 2251 Rocket 3.6 18:28:10 10° SSW 18:33:30 84° WNW 18:38:55 10° NNE
Cosmos 1606 Rocket 4.2 18:30:54 10° NNE 18:34:44 31° ENE 18:35:44 27° E
Cosmos 1980 Rocket 2.9 18:33:02 10° SW 18:38:34 55° WNW 18:44:10 10° NNE
COSMO-SKYMED 1 3.4 18:35:19 10° N 18:39:33 52° WNW 18:43:45 10° SSW
Lacrosse 5 3.1 18:38:15 10° S 18:42:10 23° ESE 18:42:20 23° ESE
Spot 1 4.4 18:43:11 36° E 18:43:41 38° E 18:47:28 10° SSE
Cosmos 1328 3.7 18:39:51 10° S 18:43:51 89° E 18:47:51 10° N
BlueWalker 3 3.0 18:41:33 10° W 18:45:12 39° NNW 18:46:49 26° NNE
PSLV R/B 3.5 18:44:45 10° SSE 18:48:23 88° WSW 18:52:04 10° NNW
Lacrosse 5 rocket 3.5 18:47:59 10° N 18:48:24 10° N 18:48:24 10° N
Okean O Rocket 1.8 18:47:21 19° SE 18:50:08 47° ENE 18:54:22 10° N
Feng Yun 1-1 Rocket 4.4 18:47:42 10° SE 18:53:08 49° ENE 18:58:26 10° N
NOSS 2-1 (C) 4.1 18:53:57 10° NW 18:58:33 82° SW 19:05:10 10° SSE
Cosmos 2263 Rocket 2.6 18:53:52 10° NNW 18:59:22 62° WSW 19:04:50 10° S
Cosmos 1825 4.1 18:56:08 10° SSE 18:57:03 17° SSE 18:57:03 17° SSE
Timation 2 Rocket 3.9 18:53:52 10° NNW 19:00:06 89° ENE 19:06:34 10° SSE
Cosmos 1553 Rocket 4.2 18:54:30 10° SSE 19:00:10 43° E 19:05:53 10° NNE
MINOTAUR 4 R/B 4.0 18:59:27 39° N 19:00:36 76° WNW 19:04:00 10° SSW
BREEZE M DEB (TANK) 2.3 18:57:04 10° WNW 19:01:22 74° SSW 19:01:26 73° SSW
Cosmos 2228 3.2 19:00:06 10° NNW 19:04:19 69° W 19:08:29 10° S
Cosmos 1763 Rocket 3.6 19:01:01 10° N 19:05:58 47° ENE 19:05:58 47° ENE
NOSS 2-1 (D) 4.3 19:02:16 10° NW 19:06:52 70° SW 19:13:26 10° SSE
ISS -2.0 19:08:04 10° NW 19:09:56 25° NNW 19:09:56 25° NNW
IRIDIUM 106 4.3 19:07:33 10° N 19:18:04 - SSE 19:12:36 55° E
SL-08 R/B 4.5 19:08:06 10° N 19:14:12 55° ENE 19:17:35 27° SE
CZ-4B R/B 3.3 19:10:55 10° S 19:16:12 71° WSW 19:21:35 10° NNW
Cosmos 676 Rocket 3.9 19:12:50 10° S 19:18:05 65° ESE 19:18:24 63° E
ATLAS CENTAUR R/B 2.9 19:14:39 10° WSW 19:19:05 38° NW 19:21:07 25° N
ATLAS 2AS CENTAUR R/B 2.7 19:13:19 10° NNW 19:20:15 58° NE 19:21:32 50° E
Cosmos 2227 4.3 19:16:48 10° NNW 19:22:35 76° WSW 19:27:19 16° SSE
Tiangong 0.7 19:27:18 10° WSW 19:28:46 14° SW 19:28:46 14° SW
Nadezhda 2 Rocket 4.4 19:23:14 10° N 19:29:30 88° W 19:35:37 10° S
Cosmos 1844 Rocket 3.3 19:27:03 10° NNW 19:31:01 41° NNE 19:31:01 41° NNE
SL-4 R/B 3.8 19:31:56 10° WNW 19:33:53 22° NW 19:33:53 22° NW
BREEZE-M DEB (TANK) 4.5 19:34:55 10° W 19:37:12 16° SW 19:37:23 16° SW
Cosmos 2360 Rocket 3.2 19:38:22 10° S 19:41:22 32° S 19:41:22 32° S
CZ-4 R/B 3.0 19:46:03 10° SSW 19:49:50 34° W 19:53:37 10° NNW
Cosmos 2322 Rocket 2.3 19:46:17 10° SSW 19:51:21 71° WSW 19:51:21 71° WSW
SL-16 R/B 3.1 19:56:56 10° SW 20:02:22 46° WNW 20:03:27 41° NNW
Lacrosse 5 3.9 20:19:38 10° WSW 20:21:35 23° WSW 20:21:35 23° WSW
Okean O Rocket 4.3 20:24:43 13° WSW 20:26:42 17° W 20:29:35 10° NW
ATLAS 2AS CENTAUR R/B 4.3 21:04:54 10° NW 21:09:01 27° W 21:09:01 27° W
